Flag for Netherlands Weather past 2 weeks in Utrecht, Netherlands

Now
43 °F

Partly cloudy.


Feels Like: 35 °F
Forecast: 34 / 38 °F
Wind: 17 mph from Southwest

Location: Amsterdam Schiphol Airport

Current Time: Jan 28, 2015 at 8:13:23 AM

Latest Report: Jan 28, 2015 at 7:55 AM


Visibility: N/A

Pressure: 29.80 "Hg

Humidity: 87%

Dew point: 39 °F

Location of UtrechtLocation

Historic Weather in Utrecht — Graph

°F

Utrecht temperature yesterday

Maximum temperature yesterday: 46 °F (at 1:55 PM)
Minimum temperature yesterday: 39 °F (at 12:55 AM)
Average temperature yesterday: 42 °F

Past Weeks' High & Low Weather Summary

 TemperatureHumidityPressure
High50 °F (Jan 13, 6:25 AM)100% (Jan 18, 6:25 AM)30.39 "Hg (Jan 18, 6:25 AM)
Low21 °F (Jan 23, 4:25 AM)66% (Jan 17, 1:25 PM)29.27 "Hg (Jan 15, 3:55 PM)
Average38 °F89%29.93 "Hg
* Reported Jan 13 6:25 AM — Jan 28 6:55 AM, Utrecht, Weather by CustomWeather, © 2014

Note: Actual official high and low records may vary slightly from our data, if they occured in-between our weather recording intervals... More about our weather records

Advertising

Utrecht weather history for previous 24 hours

 ConditionsComfort  
Time TempWeatherWind HumidityBarometerVisibility
6:55 AM
Jan 28
43 °FPartly cloudy.18 mph87%29.83 "HgN/A
6:25 AM43 °FPartly cloudy.18 mph87%29.86 "HgN/A
5:55 AM43 °FPassing clouds.17 mph87%29.89 "HgN/A
5:25 AM43 °FPassing clouds.17 mph87%29.92 "HgN/A
4:55 AM43 °FPartly cloudy.16 mph87%29.92 "HgN/A
4:25 AM43 °FPartly cloudy.15 mph93%29.95 "Hg5 mi
3:55 AM43 °FPartly cloudy.13 mph93%29.98 "Hg5 mi
3:25 AM43 °FPassing clouds.13 mph93%29.98 "Hg5 mi
2:55 AM43 °FPassing clouds.13 mph93%30.01 "Hg6 mi
2:25 AM43 °FPassing clouds.13 mph93%30.01 "HgN/A
1:55 AM43 °FPassing clouds.9 mph93%30.04 "HgN/A
1:25 AM43 °FPassing clouds.8 mph93%30.07 "HgN/A
12:55 AM43 °FPassing clouds.10 mph93%30.07 "Hg5 mi
12:25 AM43 °FPartly cloudy.10 mph93%30.09 "Hg4 mi
11:55 PM
Jan 27
43 °FPartly cloudy.10 mph93%30.09 "Hg4 mi
11:25 PM43 °FPassing clouds.13 mph93%30.12 "Hg4 mi
10:55 PM41 °FPassing clouds.10 mph100%30.12 "Hg6 mi
10:25 PM41 °FLow clouds.10 mph100%30.15 "Hg4 mi
9:55 PM41 °FPartly cloudy.10 mph93%30.15 "Hg6 mi
9:25 PM41 °FPassing clouds.13 mph93%30.15 "HgN/A
8:55 PM41 °FPassing clouds.10 mph93%30.15 "HgN/A
8:25 PM39 °FPassing clouds.9 mph93%30.18 "HgN/A
7:55 PM39 °FPassing clouds.8 mph93%30.18 "HgN/A
7:25 PM41 °FPassing clouds.8 mph93%30.18 "HgN/A
6:55 PM39 °FPassing clouds.8 mph93%30.18 "HgN/A
6:25 PM39 °FPassing clouds.8 mph93%30.21 "HgN/A
5:55 PM41 °FPassing clouds.7 mph93%30.21 "HgN/A
5:25 PM43 °FPassing clouds.10 mph87%30.18 "HgN/A
4:55 PM43 °FPartly sunny.10 mph87%30.18 "HgN/A
4:25 PM45 °FScattered clouds.10 mph81%30.18 "HgN/A
3:55 PM45 °FScattered clouds.12 mph81%30.18 "HgN/A
3:25 PM45 °FScattered clouds.12 mph81%30.18 "HgN/A
2:55 PM45 °FPassing clouds.15 mph81%30.18 "HgN/A
2:25 PM45 °FScattered clouds.16 mph81%30.18 "HgN/A
1:55 PM46 °FScattered clouds.14 mph76%30.21 "HgN/A
1:25 PM45 °FScattered clouds.16 mph81%30.21 "HgN/A
12:55 PM45 °FPassing clouds.15 mph87%30.21 "HgN/A
12:25 PM45 °FPassing clouds.16 mph81%30.21 "HgN/A
11:55 AM45 °FPassing clouds.14 mph81%30.21 "HgN/A
10:55 AM45 °FPassing clouds.12 mph81%30.21 "HgN/A
10:25 AM43 °FPassing clouds.10 mph87%30.21 "HgN/A
9:55 AM43 °FPassing clouds.10 mph87%30.21 "HgN/A
9:25 AM43 °FPassing clouds.9 mph87%30.18 "HgN/A
8:55 AM41 °FPassing clouds.12 mph87%30.21 "HgN/A
8:25 AM41 °FPassing clouds.12 mph87%30.18 "HgN/A
Weather by CustomWeather, © 2014

See weather overviewHow to use our weather pages